Hourly Weather Roundup
Issued by NWS

Home | Current Version | Previous Version | Text Only | Print | Product List | Glossary On
Versions: 1 2 3 4 5 6 7 8 9 10 11 12 13 14 15 16 17 18 19 20 21 22 23 24 25 26 27 28 29 30 31 32 33 34 35 36 37 38 39 40 41 42 43 44 45 46 47 48 49 50
989
NZUS43 KILX 010210
HWRCRS

CRS HOURLY WEATHER ROUNDUP
NATIONAL WEATHER SERVICE, LINCOLN IL
900 PM CDT TUE MAY 31 2016


CITY           SKY/WX    TMP DP  RH WIND       PRES   REMARKS
CHAMPAIGN      PTCLDY    68  61  78 NE10      29.95S
LAWRENCEVILLE  CLOUDY    78  64  61 CALM      29.93R HX  80
PEORIA         CLOUDY    72  61  68 E8        29.92R
SPRINGFIELD    MOCLDY    73  62  68 CALM      29.92R
$$


CITY           SKY/WX    TMP DP  RH WIND       PRES   REMARKS
BLOOMINGTON    CLOUDY    69  66  90 E13       29.95R
DECATUR        CLOUDY    70  63  78 E9        29.94R
EFFINGHAM      CLOUDY    71  69  93 CALM      29.95R
FLORA          CLOUDY    75  66  74 W3        29.93R
GALESBURG      CLOUDY    75  63  65 SE3       29.91R
JACKSONVILLE   PTCLDY    73  64  72 SE5       29.92R
LACON          PTCLDY    69  60  72 E8        29.92F
LINCOLN        CLOUDY    70  62  75 CALM      29.93R
LITCHFIELD     CLEAR     70  63  78 SE3       29.93

CITY           SKY/WX    TMP DP  RH WIND       PRES   REMARKS
MACOMB         MOCLDY    74  63  68 S3        29.94R
MATTOON        CLOUDY    73  59  61 NE9       29.93R
MOLINE         CLOUDY    70  65  84 E5        29.90R
OLNEY          CLOUDY    73  68  83 CALM      29.94R
PARIS          CLEAR     74  62  66 N5        29.94S
PONTIAC        MOCLDY    70  62  75 E7        29.95F
QUINCY         PTCLDY    75  65  70 SE5       29.90S
RANTOUL        PTCLDY    68  64  85 N12       29.96S
ROBINSON       CLOUDY    72  64  74 CALM      29.94R
TAYLORVILLE    CLOUDY    69  66  89 CALM      29.93R
TERRE HAUTE    PTCLDY    75  61  61 CALM      29.93R
$$


CITY           SKY/WX    TMP DP  RH WIND       PRES   REMARKS
BURLINGTON     CLOUDY    74  65  73 S6        29.90R
CHICAGO        CLOUDY    67  61  81 E6        29.95S
DES MOINES     MOCLDY    69  63  81 CALM      29.91R
EVANSVILLE     CLEAR     78  60  53 CALM      29.93R
INDIANAPOLIS   PTCLDY    79  57  46 SE3       29.94R HX  80
KANSAS CITY    CLOUDY    72  64  76 SW3       29.93R
MILWAUKEE      CLOUDY    62  58  86 SE6       29.95F
ST LOUIS       MOCLDY    81  63  54 S6        29.91R HX  82
$$





USA.gov is the U.S. government's official web portal to all federal, state and local government web resources and services.